{"data":{"norad_id":66643,"epoch":"2026-09-20T10:05:04.374528Z","epoch_age_seconds":93324,"freshness":"FRESH","line1":"1 66643U 25271AC  26263.42018952  .00016069  00000+0  48554-3 0  9992","line2":"2 66643  53.1565 310.2586 0000558  86.7329 273.3737 15.34409013 47452","mean_motion":15.34409013,"eccentricity":5.58e-5,"inclination_deg":53.1565,"raan_deg":310.2586,"arg_perigee_deg":86.7329,"mean_anomaly_deg":273.3737,"bstar":0.00048554,"rev_number":4745,"period_min":93.847206826854,"perigee_km":462.29473441222,"apogee_km":463.05816919344,"semimajor_km":6840.8134518028,"source":"CELESTRAK","updated_at":"2026-09-21T09:00:36.012706Z"}}